BSAT-3C (JCSAT-110R)

Last updated on Thu Oct 30 2025 00:02:48 GMT+0000 (Coordinated Universal Time)

1 37776U 11041B 25302.35017706 -.00000341 00000+0 00000+0 0 9995 2 37776 0.0051 25.7144 0000542 331.6927 276.5877 1.00269390 48164
UTC large
Height (km)
Speed (km/s)
/
Latitude / Longitude
Inclination (degrees)
Orbital Period (minutes)
Azimuth
Elevation
Range (km)
Doppler Factor

Next 0 passes for location: London (51.5072 / 0.1276)

Sorry there are no passes over London.